User: anonymous   Login
Location: Unspecified
(44.0704°N, 88.6889°W)
Time: 05:49:20
(UTC+02:00)
Language:

Transit 4A - Orbit

View from above orbital plane
View from above orbital plane
View from above satellite
View from above satellite

Ground track
Ground track

The orbit data is extracted from the following two-line orbital elements,

1   116U 61015A   19166.11134005 -.00000061  00000-0  12279-4 0  9992
2   116  66.8108  28.6549 0082754 267.3441  91.8164 13.91753905941046
Epoch (UTC): 15 June 2019 02:40:19
Eccentricity: 0.0082754
inclination: 66.8108°
perigee height: 862 km
apogee height: 983 km
right ascension of ascending node: 28.6549°
argument of perigee: 267.3441°
revolutions per day: 13.91753905
mean anomaly at epoch: 91.8164°
orbit number at epoch: 94104

The dashed part of the orbit path shows where the satellite is in the earth's shadow,  

DLR